Location: ???? ????
(41.4149°N, 22.8816°E)
Time: 11:16:15
(UTC+00:00)

OE (NEXTSAT) - Pass Details

Date: 14 July 2020
Orbit: 431 x 439 km, 46.0° (Epoch: 09 August)

Event Time Altitude Azimuth Distance (km) Brightness Sun altitude
Exits shadow 02:20:18 10° 249° (WSW) 1,522 6.5 -8.1°
Maximum altitude 02:23:44 84° 336° (NNW) 436 4.3 -7.6°
Drops below altitude 10° 02:27:12 10° 66° (ENE) 1,528 8.7 -7.1°
Sets 02:29:19 0° 67° (ENE) 2,397 10.0 -6.8°
